Temp
61 61 61 60 60 60 60 60 60 60 60 60 60 60 60 60 59 55 60 72 70 72 73 73 70 70 68 64 68 66 55 48 55 59 63 71 69 76 78 71 73 80 77 77 76
61 61 60 60 60 60 60 60 60 60 60 60 60 60 60 60 52 57 72 73 73 74 72 69 66 68 62 61 64 61 52 57 66 66 66 69 71 71 73 71 70 73 79 77 74
60 60 60 60 60 59 59 59 59 60 60 60 60 60 59 58 58 73 76 73 73 74 73 71 69 67 57 58 61 58 57 64 70 72 68 69 69 73 73 68 71 70 73 72 72
59 60 60 60 59 59 59 59 59 60 60 60 60 60 60 53 58 74 75 74 74 74 71 69 65 59 54 54 59 55 67 66 71 71 68 70 73 72 75 73 78 77 78 73 71
59 59 59 59 59 59 59 59 59 59 59 59 59 60 54 56 66 74 76 75 74 74 71 68 61 59 53 57 59 59 66 68 72 70 68 73 70 70 73 76 77 78 79 74 72
59 59 59 59 59 59 59 58 58 58 58 59 59 60 55 56 77 77 76 73 75 69 68 70 69 69 60 60 60 65 65 68 69 71 67 69 68 72 74 76 75 76 75 75 73
58 58 58 58 59 59 58 57 57 58 59 60 60 61 59 68 78 76 76 73 76 77 74 75 74 68 64 62 65 66 61 66 64 66 68 72 64 66 71 76 73 74 74 74 76
58 58 58 58 58 58 58 57 57 58 60 61 61 57 60 76 76 74 74 77 78 78 77 80 75 68 63 66 67 61 58 53 63 67 70 69 60 67 71 73 70 71 72 72 71
58 57 58 58 58 58 57 57 58 59 62 62 55 56 64 78 77 82 80 79 79 79 77 86 71 64 65 57 54 54 49 50 62 64 67 63 62 65 69 71 68 69 70 71 69
58 57 57 57 57 57 56 57 60 59 61 64 68 60 69 75 79 84 80 82 79 76 74 71 62 57 53 53 47 49 51 53 56 65 64 59 61 62 67 69 69 66 68 70 68
58 57 57 57 57 56 54 57 62 61 59 66 68 69 74 81 82 79 83 79 75 72 60 61 57 53 57 59 59 57 55 55 60 67 61 61 60 57 62 65 64 65 65 69 69
57 57 57 57 57 56 50 64 68 69 62 70 73 72 78 77 73 78 82 70 68 60 62 59 54 65 66 64 62 58 54 56 61 67 63 62 59 59 62 64 65 66 65 70 70
56 56 56 57 56 54 60 68 72 66 58 68 73 74 75 76 72 75 79 70 65 60 60 56 65 70 66 62 60 57 55 57 58 63 63 61 54 58 64 65 68 67 67 71 69
56 56 56 55 60 60 66 72 69 68 51 64 69 76 76 76 71 82 80 74 65 61 62 60 67 68 62 63 64 54 65 64 61 57 50 58 44 53 59 61 62 64 65 68 71
56 56 56 55 56 63 72 67 64 68 43 68 71 80 74 71 71 73 78 73 64 65 64 62 65 64 61 65 67 63 67 62 60 53 50 54 45 52 57 58 61 62 63 67 70
56 56 55 54 51 63 67 66 69 53 45 64 73 69 67 69 71 73 74 75 72 65 64 64 71 67 66 71 69 69 62 56 51 48 44 48 47 48 50 56 59 63 63 64 67
55 55 52 59 65 64 66 65 50 46 65 63 65 68 66 66 67 71 67 63 59 52 53 62 64 69 71 65 67 62 52 42 42 41 42 50 47 49 59 62 62 60 62 62 63
54 53 53 61 59 65 64 57 40 58 60 68 68 65 64 66 67 67 64 59 62 59 52 51 51 64 71 63 58 55 53 43 36 38 42 52 44 50 62 66 63 62 60 63 62
52 55 56 62 61 62 58 44 48 56 66 66 65 59 59 66 64 64 60 58 62 62 54 50 54 66 69 69 63 55 50 52 46 42 42 44 51 58 62 62 62 59 61 60 61
49 53 59 66 67 61 52 47 53 65 69 66 55 59 53 59 59 58 57 63 64 65 61 56 50 62 67 68 65 60 58 48 44 37 35 43 44 46 53 58 57 57 58 61 61
51 57 67 66 66 56 46 48 58 69 70 63 58 57 57 57 56 55 57 63 66 64 62 54 52 55 60 56 53 54 50 46 45 43 38 36 43 53 56 57 57 57 58 58 59
48 52 66 66 55 46 48 55 60 67 69 66 64 61 57 58 57 56 57 60 67 64 56 54 48 45 51 59 60 57 50 47 42 41 40 39 42 58 56 59 59 59 58 56 60
44 46 61 64 48 46 53 61 65 65 64 63 60 62 60 55 50 57 59 65 66 62 56 55 46 40 45 52 57 53 55 50 45 42 40 39 44 59 58 56 55 57 57 59 58
46 48 53 53 51 49 48 53 57 66 64 64 61 62 57 54 55 52 57 61 64 62 60 57 45 46 41 46 48 47 51 51 46 39 41 43 48 56 55 55 55 56 57 56 57
46 44 47 44 49 47 48 53 55 56 61 62 57 57 55 47 49 48 54 57 60 59 56 51 46 46 49 52 53 51 52 51 47 47 43 47 48 54 53 56 55 57 58 58 57
45 44 46 44 46 48 47 48 53 57 55 56 53 54 53 49 49 48 50 49 49 54 49 48 43 44 45 52 53 50 53 52 51 52 49 50 48 54 54 57 57 57 58 57 57
46 46 46 44 45 45 45 50 53 53 57 58 55 51 50 52 53 51 51 51 49 47 47 46 44 40 38 48 48 41 50 51 51 53 51 46 50 52 52 54 53 55 57 57 57
MSLP
1017.95 1017.60 1017.31 1017.08 1016.67 1016.37 1016.05 1015.57 1015.28 1014.98 1014.74 1014.34 1014.10 1013.94 1013.71 1013.34 1012.92 1012.70 1011.35 1008.94 1008.93 1008.99 1009.17 1009.41 1009.69 1009.65 1009.97 1010.07 1010.21 1010.74 1011.82 1012.27 1011.30 1010.52 1009.39 1009.17 1009.33 1008.98 1009.17 1009.22 1009.27 1009.22 1009.35 1010.33 1012.51
1017.79 1017.47 1017.19 1016.86 1016.52 1016.10 1015.72 1015.33 1015.06 1014.67 1014.52 1014.11 1013.91 1013.83 1013.50 1013.30 1013.08 1011.47 1008.27 1008.30 1008.56 1009.11 1009.35 1009.40 1009.49 1009.57 1010.07 1010.10 1010.23 1010.77 1011.52 1011.32 1010.11 1009.40 1008.93 1008.83 1008.87 1009.25 1009.44 1009.72 1009.82 1009.75 1009.65 1010.66 1012.60
1017.71 1017.43 1017.05 1016.59 1016.24 1015.82 1015.40 1015.14 1014.80 1014.46 1014.30 1014.02 1013.71 1013.57 1013.42 1013.43 1012.60 1009.01 1007.47 1007.86 1008.46 1008.87 1009.11 1009.26 1009.33 1009.38 1009.89 1010.03 1009.95 1010.38 1010.62 1010.02 1009.03 1008.39 1008.54 1008.88 1008.70 1008.69 1008.96 1009.15 1008.37 1009.21 1009.91 1011.01 1012.58
1017.76 1017.29 1016.73 1016.35 1015.94 1015.58 1015.27 1014.93 1014.59 1014.22 1014.05 1013.83 1013.59 1013.35 1013.29 1013.34 1011.17 1008.00 1007.41 1007.87 1008.35 1008.81 1009.21 1009.27 1009.34 1009.60 1009.80 1010.02 1009.73 1009.98 1009.43 1009.21 1008.34 1007.67 1007.86 1008.14 1008.26 1008.69 1007.88 1007.33 1006.51 1008.36 1009.48 1010.66 1012.04
1017.61 1016.97 1016.60 1015.96 1015.76 1015.44 1015.11 1014.71 1014.34 1014.04 1013.88 1013.57 1013.43 1013.33 1013.15 1012.36 1009.76 1007.82 1007.75 1008.07 1008.50 1008.97 1009.12 1009.29 1009.36 1009.49 1009.70 1009.68 1009.65 1009.68 1008.98 1008.55 1007.86 1007.61 1007.47 1007.54 1007.65 1007.77 1007.51 1007.64 1007.90 1008.68 1009.58 1010.96 1011.16
1017.23 1016.85 1016.36 1015.90 1015.51 1015.16 1014.84 1014.52 1014.11 1013.91 1013.51 1013.38 1013.36 1013.34 1012.87 1010.83 1007.60 1007.68 1007.91 1008.36 1008.41 1008.89 1009.00 1008.96 1008.91 1008.86 1009.13 1009.27 1009.35 1009.01 1008.66 1008.16 1007.60 1007.02 1006.88 1007.12 1007.22 1007.50 1007.72 1008.00 1008.47 1009.00 1009.41 1010.33 1010.53
1017.12 1016.64 1016.29 1015.74 1015.37 1014.95 1014.60 1014.16 1013.77 1013.56 1013.27 1013.25 1013.28 1013.27 1012.02 1009.14 1007.62 1007.77 1007.91 1008.02 1007.93 1008.23 1008.29 1008.23 1008.35 1008.65 1008.70 1008.82 1008.67 1008.69 1008.77 1008.03 1007.33 1006.83 1006.49 1006.58 1008.03 1007.74 1007.52 1008.13 1008.62 1009.16 1009.54 1009.91 1009.74
1016.93 1016.68 1016.17 1015.47 1015.05 1014.53 1014.08 1013.92 1013.53 1013.33 1013.13 1013.07 1013.17 1013.05 1010.83 1007.86 1007.56 1007.72 1007.71 1007.72 1007.57 1007.75 1007.85 1007.57 1007.89 1008.48 1008.67 1008.63 1008.74 1009.05 1009.15 1008.87 1007.39 1006.74 1006.16 1006.24 1007.28 1007.34 1007.66 1007.83 1008.59 1008.99 1009.57 1009.91 1009.41
1016.74 1016.31 1015.72 1015.00 1014.55 1014.24 1013.83 1013.51 1013.25 1013.12 1013.05 1013.11 1013.09 1012.56 1009.68 1007.45 1007.48 1006.67 1007.24 1007.49 1007.23 1007.24 1007.48 1007.50 1008.03 1008.90 1009.08 1009.60 1009.94 1010.13 1009.84 1009.19 1007.95 1006.59 1006.36 1006.67 1007.10 1007.14 1007.89 1008.22 1008.56 1009.07 1009.79 1009.73 1009.48
1016.76 1016.22 1015.45 1014.83 1014.43 1014.02 1013.59 1013.04 1013.03 1012.97 1013.05 1012.90 1012.53 1011.81 1008.95 1007.47 1006.67 1006.44 1006.81 1007.03 1007.27 1007.31 1007.67 1007.98 1009.03 1009.62 1010.33 1010.53 1010.70 1010.46 1009.93 1009.32 1008.70 1007.17 1006.65 1007.02 1007.33 1007.50 1007.98 1008.44 1008.72 1009.51 1009.40 1009.25 1009.09
1016.54 1015.80 1015.15 1014.50 1013.99 1013.95 1013.39 1013.29 1013.13 1012.58 1012.13 1011.21 1010.66 1010.01 1008.51 1006.98 1006.27 1006.41 1006.53 1006.92 1007.23 1007.67 1008.56 1009.02 1009.85 1010.15 1010.11 1010.10 1010.08 1009.96 1009.69 1009.43 1008.39 1007.68 1007.28 1007.77 1008.14 1008.79 1008.78 1009.08 1009.32 1009.45 1009.34 1008.81 1008.42
1016.09 1015.47 1014.77 1014.34 1013.76 1013.46 1013.28 1012.39 1011.28 1010.79 1010.60 1009.58 1009.23 1008.97 1007.92 1007.36 1007.06 1006.48 1006.43 1007.16 1007.50 1008.36 1008.95 1009.49 1009.57 1008.84 1009.02 1009.14 1009.34 1009.51 1009.54 1008.82 1008.14 1007.66 1007.73 1009.17 1010.22 1010.76 1011.01 1011.10 1010.78 1010.29 1009.41 1008.34 1008.52
1015.93 1015.37 1014.69 1013.64 1013.11 1013.19 1012.62 1011.40 1010.38 1010.37 1010.62 1008.99 1008.16 1007.48 1006.86 1007.12 1006.90 1006.45 1006.51 1007.04 1007.71 1008.55 1008.76 1009.34 1008.48 1008.13 1008.10 1008.02 1008.58 1008.56 1008.76 1008.51 1008.47 1008.06 1008.31 1009.58 1011.63 1011.71 1011.28 1011.04 1010.34 1010.13 1009.86 1009.50 1008.96
1015.81 1014.98 1014.24 1013.23 1013.15 1012.84 1011.61 1010.40 1010.29 1010.64 1010.79 1008.54 1007.21 1005.99 1006.09 1006.34 1006.46 1005.96 1006.08 1006.90 1007.56 1008.19 1008.40 1008.66 1007.86 1007.78 1007.34 1007.46 1007.29 1007.49 1007.57 1008.02 1008.34 1008.77 1009.83 1010.04 1012.29 1012.78 1012.29 1011.51 1010.51 1010.24 1009.75 1008.95 1008.10
1015.40 1014.70 1014.07 1013.84 1013.53 1012.50 1011.04 1010.53 1010.47 1010.73 1010.02 1007.69 1006.40 1005.35 1005.86 1006.46 1006.23 1005.95 1006.01 1006.61 1007.34 1007.93 1008.57 1008.50 1007.78 1007.30 1006.84 1006.64 1006.56 1006.99 1007.24 1008.22 1008.77 1009.89 1010.83 1011.57 1012.73 1013.12 1012.55 1011.65 1010.50 1009.63 1009.01 1008.28 1008.71
1014.81 1014.04 1013.87 1013.92 1013.65 1011.40 1010.57 1010.59 1010.74 1011.08 1009.01 1007.19 1006.13 1005.98 1006.45 1006.47 1006.27 1006.15 1006.34 1006.79 1007.24 1007.85 1008.38 1008.27 1007.46 1007.15 1006.73 1006.33 1006.55 1006.88 1007.79 1008.99 1010.15 1011.05 1012.16 1012.59 1013.03 1013.85 1013.02 1012.42 1011.24 1009.81 1008.85 1008.20 1008.90
1013.97 1013.76 1014.13 1013.43 1012.03 1010.98 1010.71 1011.16 1011.70 1010.42 1008.69 1007.57 1006.61 1006.40 1006.63 1006.89 1006.74 1006.62 1006.92 1007.43 1008.14 1008.60 1009.13 1008.65 1007.94 1007.29 1006.87 1006.81 1006.86 1007.64 1009.25 1010.78 1012.22 1012.82 1013.48 1012.91 1013.14 1013.33 1012.32 1011.87 1011.37 1010.52 1009.26 1009.17 1009.12
1013.89 1013.11 1012.97 1011.91 1011.30 1011.09 1011.50 1012.24 1011.87 1010.27 1008.94 1007.67 1006.89 1006.80 1006.97 1006.98 1006.99 1007.11 1007.57 1008.27 1008.55 1008.83 1009.72 1009.58 1008.78 1007.94 1007.66 1007.83 1008.20 1009.00 1010.04 1011.70 1013.16 1014.06 1013.96 1013.29 1013.34 1012.59 1011.94 1011.52 1011.39 1010.84 1009.97 1009.69 1009.93
1013.59 1012.67 1012.54 1010.86 1010.91 1011.61 1012.47 1012.91 1011.62 1010.46 1009.08 1008.06 1007.33 1007.32 1007.52 1007.29 1007.40 1007.38 1008.08 1008.71 1008.76 1008.92 1009.72 1009.93 1009.36 1008.55 1008.28 1008.29 1008.65 1009.59 1010.87 1011.85 1013.34 1014.53 1014.52 1014.09 1013.03 1012.10 1011.75 1011.54 1011.69 1011.23 1010.96 1010.50 1010.67
1014.38 1013.61 1012.11 1010.55 1010.64 1011.58 1012.84 1012.90 1011.64 1010.14 1008.89 1008.17 1008.28 1008.24 1008.39 1008.30 1008.13 1008.18 1008.82 1009.11 1009.03 1009.09 1009.39 1010.35 1010.34 1009.68 1009.04 1008.95 1009.45 1010.03 1011.43 1012.51 1013.90 1015.14 1015.39 1014.72 1013.79 1012.74 1012.22 1011.74 1011.70 1011.57 1011.58 1011.19 1011.17
1014.60 1013.64 1011.39 1010.54 1010.90 1012.53 1013.40 1012.67 1011.21 1009.58 1008.81 1008.35 1008.56 1008.78 1009.07 1009.15 1009.12 1009.19 1009.64 1009.56 1009.36 1009.72 1009.90 1010.76 1011.39 1011.11 1010.35 1010.67 1011.14 1011.26 1012.15 1013.72 1014.82 1015.39 1015.75 1015.33 1014.13 1011.76 1011.54 1011.78 1011.96 1012.20 1012.21 1012.27 1012.43
1015.41 1014.30 1011.48 1011.02 1012.43 1013.57 1013.35 1012.10 1010.91 1009.57 1008.90 1008.40 1008.58 1008.98 1009.45 1009.69 1009.91 1009.97 1010.10 1010.11 1009.96 1010.23 1011.14 1011.99 1012.71 1012.95 1012.38 1011.70 1011.71 1012.06 1013.20 1014.02 1015.40 1016.06 1015.92 1015.34 1013.41 1011.39 1011.22 1011.79 1011.88 1012.25 1012.36 1012.60 1012.76
1016.93 1015.24 1012.15 1011.60 1013.21 1013.99 1013.22 1012.20 1011.06 1009.99 1009.30 1009.07 1009.33 1009.59 1009.97 1010.37 1010.85 1010.80 1010.69 1010.59 1010.64 1011.02 1011.85 1012.46 1013.66 1014.24 1013.47 1013.04 1012.54 1013.13 1013.70 1014.34 1015.25 1015.86 1015.91 1015.46 1013.21 1011.61 1011.26 1011.61 1011.73 1012.23 1012.75 1012.92 1012.90
1017.36 1016.25 1014.47 1013.81 1014.28 1014.18 1013.81 1012.69 1011.46 1010.29 1009.85 1009.86 1009.98 1010.18 1010.70 1011.27 1011.61 1011.93 1011.83 1011.84 1011.69 1012.17 1012.53 1012.93 1014.40 1014.74 1014.66 1014.19 1014.01 1013.95 1014.05 1014.28 1015.08 1016.01 1015.74 1014.86 1013.57 1012.07 1012.10 1012.22 1012.49 1012.65 1012.78 1013.00 1013.30
1017.62 1017.60 1017.02 1016.16 1015.55 1015.07 1014.23 1013.42 1012.42 1011.63 1010.86 1010.69 1011.04 1011.31 1011.60 1012.39 1012.86 1013.15 1012.98 1012.87 1012.93 1013.20 1013.47 1014.16 1015.13 1015.16 1014.78 1014.53 1014.22 1014.02 1013.89 1014.07 1014.72 1014.95 1015.32 1014.23 1013.80 1012.54 1012.28 1012.18 1012.34 1012.53 1012.90 1013.19 1013.17
1018.15 1018.15 1017.46 1016.96 1016.27 1015.53 1015.03 1014.56 1013.77 1012.77 1012.45 1012.03 1012.32 1012.63 1012.53 1013.20 1013.62 1013.89 1013.98 1014.02 1013.98 1014.23 1014.65 1015.24 1015.73 1015.84 1015.49 1014.81 1014.62 1014.32 1014.01 1013.68 1013.71 1013.97 1014.01 1013.84 1013.43 1012.35 1012.01 1012.31 1012.69 1012.94 1013.10 1013.30 1013.41
1018.50 1018.21 1017.95 1017.87 1017.09 1016.33 1016.02 1015.18 1014.54 1013.85 1013.15 1012.86 1013.18 1013.42 1013.67 1014.05 1014.20 1014.36 1014.51 1014.61 1014.66 1015.02 1015.61 1016.08 1016.56 1017.15 1016.72 1015.88 1015.24 1014.63 1013.58 1013.10 1013.14 1013.19 1013.40 1013.58 1012.99 1012.89 1013.17 1013.26 1013.47 1013.65 1013.76 1013.84 1013.74
Wind_Speed
12 12 13 14 13 13 13 12 13 13 12 12 12 12 13 14 14 2 7 8 5 1 5 0 2 2 2 1 3 4 5 2 4 4 5 6 5 3 5 7 4 6 6 12 19
13 13 14 14 14 14 14 13 13 12 12 11 11 11 11 12 3 6 11 6 8 8 3 3 3 3 2 2 1 5 5 9 6 5 6 3 6 5 3 4 4 3 8 22 22
14 15 15 15 16 15 14 13 13 12 12 11 10 10 9 7 4 6 5 10 7 11 3 3 2 3 1 1 3 4 5 6 7 11 3 6 6 7 14 8 10 14 19 23 21
15 16 17 17 17 16 15 14 13 12 11 10 9 8 7 2 2 2 6 11 10 6 2 4 3 4 2 2 2 0 7 4 9 3 3 7 8 6 14 13 15 15 21 24 20
16 17 18 17 17 16 15 14 12 12 10 8 6 6 2 2 9 2 10 9 7 5 4 4 2 3 1 2 1 5 7 6 11 11 7 8 13 11 21 4 8 15 19 18 20
17 17 18 18 18 17 15 14 11 11 9 6 4 3 0 2 2 8 8 6 5 5 4 5 6 7 2 3 4 4 5 7 7 10 5 8 6 12 11 9 14 18 18 18 21
17 18 19 18 18 16 15 12 9 10 7 3 3 2 2 11 3 6 7 5 5 5 3 5 5 2 2 4 3 4 6 8 3 4 4 8 5 7 8 17 17 19 14 13 18
18 18 18 18 18 17 15 13 10 7 5 2 5 2 7 4 1 3 4 4 4 5 2 6 4 4 2 2 8 5 5 5 7 4 4 6 7 5 13 21 17 15 13 12 11
20 20 19 19 19 17 16 14 8 3 2 7 2 2 9 4 3 7 6 4 1 3 4 4 1 2 6 4 6 7 2 3 12 3 4 4 9 7 8 12 15 13 10 12 7
20 20 19 18 18 16 17 4 8 5 2 3 4 3 5 4 3 3 6 5 5 2 5 5 6 4 5 5 3 2 4 5 6 8 4 4 7 7 12 14 14 8 11 14 12
21 21 19 18 16 12 6 2 4 3 2 6 3 3 6 6 1 2 4 3 2 9 2 4 5 5 7 7 4 1 4 5 7 8 3 6 8 3 6 7 9 11 12 16 17
22 22 21 19 16 12 2 2 4 5 7 9 7 6 7 2 4 3 4 2 4 1 2 7 5 10 6 5 5 4 3 9 6 4 3 17 21 9 8 10 8 9 13 21 14
21 21 21 20 17 1 1 5 7 2 3 8 6 5 5 8 6 6 7 3 2 2 3 4 12 5 6 5 2 4 5 4 4 3 4 9 12 14 9 5 12 9 12 14 13
22 20 20 25 2 4 4 4 8 4 5 7 4 6 3 5 4 7 7 5 1 2 2 5 4 4 3 4 6 4 6 4 2 5 2 4 1 5 6 9 6 7 12 21 21
22 19 16 9 3 1 3 8 3 5 3 1 3 1 3 6 1 1 3 4 4 4 5 8 7 8 2 4 2 5 2 3 2 5 5 7 8 8 5 8 8 10 9 18 19
23 19 15 2 1 7 7 6 5 6 1 3 4 4 4 1 3 2 3 2 1 1 1 7 5 2 3 4 3 3 3 5 5 3 5 5 8 7 5 6 9 9 12 9 6
26 19 6 3 4 5 4 5 6 4 5 3 6 4 4 5 3 5 5 5 3 3 4 6 5 7 3 7 7 8 8 5 7 7 4 3 7 7 7 8 6 7 9 8 9
27 21 8 5 1 5 4 7 2 3 5 4 3 3 7 6 6 4 5 2 3 4 3 2 7 5 5 1 3 4 6 6 2 1 5 4 4 7 7 7 8 4 1 5 4
23 3 2 4 6 3 7 4 7 4 5 6 4 3 5 6 2 3 5 3 1 5 6 3 5 4 2 2 2 2 5 1 7 3 2 3 3 5 5 9 7 1 3 2 5
4 4 4 1 6 6 6 5 4 4 4 3 3 4 3 5 6 3 3 2 2 3 3 4 2 3 4 1 6 6 1 4 5 1 1 4 4 5 6 8 2 3 4 5 4
3 3 4 4 5 6 4 6 5 7 4 3 2 2 2 3 2 3 2 4 4 3 6 3 4 7 5 5 3 6 4 7 5 3 5 1 7 7 7 6 6 6 4 3 4
3 2 4 2 4 1 3 5 4 5 5 1 4 3 2 3 4 2 3 1 5 1 3 2 5 2 5 6 4 4 3 4 6 2 0 3 8 4 6 7 6 7 4 3 4
2 4 5 5 2 2 5 4 3 4 3 0 2 3 1 2 2 3 2 3 5 3 4 4 2 4 10 8 6 6 3 4 4 3 4 5 8 1 4 4 1 8 4 1 4
2 3 6 6 1 3 2 3 5 8 2 3 3 4 4 3 6 2 4 7 4 5 8 7 3 7 7 6 3 2 1 1 4 3 3 6 7 12 5 3 6 7 5 3 1
3 1 3 2 3 3 1 3 3 6 5 5 5 4 4 2 2 2 3 4 6 9 4 5 5 4 5 5 3 3 6 3 6 7 6 7 8 11 5 9 8 8 7 6 4
2 2 4 0 3 3 5 5 6 6 5 4 4 3 3 5 3 6 2 0 1 5 3 4 1 1 3 1 5 4 7 10 8 7 7 8 10 8 4 6 6 6 6 5 4
2 1 4 3 3 3 1 3 3 5 3 4 8 4 4 4 3 2 2 2 1 1 2 3 4 3 5 2 5 4 9 6 2 4 3 6 5 2 3 6 6 6 6 5 4
Wind_Direction
343 338 333 327 327 323 320 323 317 316 316 316 317 314 314 320 318 199 249 218 168 124 133 140 144 143 105 208 167 129 68 184 222 186 263 164 20 37 23 128 221 162 154 145 152
344 337 331 327 325 324 322 322 316 317 314 313 309 309 319 332 291 251 246 184 223 150 152 175 108 106 49 245 141 107 117 215 212 199 221 239 146 168 137 40 332 272 96 135 146
341 334 330 329 326 323 322 318 315 314 308 306 305 307 323 331 322 256 189 181 197 173 116 150 127 99 81 337 200 155 186 220 254 229 209 195 190 169 140 215 189 197 154 151 156
336 335 332 329 327 323 319 314 313 310 304 302 306 310 327 267 158 318 129 152 149 147 138 135 79 96 126 229 247 166 242 222 279 260 233 156 141 194 173 221 205 181 166 153 169
334 336 329 331 323 320 316 311 310 304 298 303 305 311 352 25 253 163 128 137 118 120 174 152 121 129 192 216 233 202 258 247 261 285 244 159 187 186 210 47 116 155 158 168 175
331 331 328 326 323 319 315 306 301 295 299 303 284 279 236 291 234 155 132 126 134 161 157 166 185 199 231 223 171 220 238 274 280 270 241 166 241 136 212 138 150 167 174 178 186
329 328 324 323 319 317 311 304 298 299 298 281 226 239 85 236 17 158 157 191 177 182 196 202 162 147 174 298 232 285 325 336 272 296 279 144 83 215 171 166 166 178 186 186 196
330 321 320 322 321 320 314 305 300 292 294 214 173 279 248 242 159 203 165 310 206 219 255 264 159 219 180 302 8 7 55 18 284 319 304 109 267 246 173 162 173 176 181 186 199
328 321 320 326 327 319 309 302 282 240 136 136 121 70 275 302 186 221 147 224 255 239 230 271 85 57 19 61 4 8 301 325 323 295 252 120 254 185 179 176 174 182 181 204 209
323 318 323 324 321 317 312 230 143 138 160 195 252 351 280 314 249 201 185 215 255 332 17 47 46 44 37 72 218 278 343 322 284 296 11 327 277 186 188 185 186 179 198 209 205
322 322 323 323 320 310 327 175 13 0 137 219 210 259 271 274 185 238 172 157 74 56 27 354 40 264 238 202 187 294 271 255 259 273 296 329 321 223 179 189 186 211 215 219 213
323 324 326 320 315 306 203 70 202 200 316 232 247 249 265 98 343 257 97 115 70 348 11 8 261 254 229 218 222 216 255 286 287 274 140 59 30 26 351 323 312 254 226 228 213
322 321 323 326 322 136 319 261 316 35 53 295 203 199 209 143 205 238 127 156 168 324 247 167 253 334 206 252 194 223 194 256 227 310 19 120 58 15 348 307 285 240 258 263 245
320 326 330 326 30 306 303 305 330 87 55 278 252 264 126 133 238 208 177 139 86 219 269 227 282 292 308 254 164 3 194 214 89 73 132 29 107 35 331 311 356 321 245 245 246
321 326 333 342 271 342 290 339 315 59 64 154 207 33 94 154 247 265 164 57 216 211 75 266 296 330 355 255 197 219 99 18 64 103 96 350 76 282 299 347 347 335 315 233 248
320 332 338 121 248 248 319 331 52 43 317 321 153 165 120 322 346 54 118 59 235 141 255 254 268 304 289 313 343 22 57 54 57 68 53 278 119 291 296 279 303 337 333 308 198
324 323 302 295 225 321 335 44 38 123 348 257 203 158 176 204 248 165 172 187 192 66 353 334 324 320 359 12 6 58 51 3 12 14 227 229 60 220 267 286 272 287 11 34 106
322 316 185 227 302 6 49 47 133 259 263 297 296 123 174 156 232 187 132 186 240 93 94 97 333 13 347 28 244 8 118 142 144 201 265 332 140 248 227 280 287 280 15 81 98
317 334 281 269 184 102 75 81 204 214 289 338 335 96 356 350 293 110 137 186 178 164 165 146 286 323 67 12 64 44 41 168 105 358 59 283 273 302 226 252 270 250 314 293 6
331 345 274 325 138 67 77 222 239 230 303 31 72 18 60 356 23 103 137 319 125 52 136 184 347 359 297 101 24 97 169 41 9 123 300 300 291 249 201 251 268 171 210 247 319
28 20 291 92 63 51 151 227 269 273 278 93 139 69 61 21 27 53 357 347 7 44 67 97 103 292 10 38 348 350 23 51 116 119 157 206 272 220 234 203 226 244 294 335 0
7 41 309 64 54 27 172 201 283 296 321 297 106 96 84 50 33 82 109 31 340 31 60 32 123 261 259 302 285 55 98 104 110 240 127 139 269 276 250 177 207 214 198 298 294
24 268 306 82 152 296 300 293 267 309 240 77 90 71 3 83 106 15 86 16 31 66 143 177 43 16 348 358 12 52 20 114 104 70 214 144 261 356 37 93 199 162 154 106 354
58 14 329 41 48 130 22 302 320 331 51 29 124 79 69 49 28 120 9 6 30 61 60 76 119 154 200 209 174 257 338 97 115 117 229 229 278 306 345 175 141 128 137 165 301
32 265 184 340 349 354 288 323 348 358 1 12 47 45 121 123 63 50 354 1 35 356 63 91 177 189 232 221 229 234 285 243 194 209 184 255 223 264 235 202 176 158 159 157 100
87 60 356 325 297 357 9 26 8 334 20 343 108 3 74 147 184 186 222 316 233 355 69 359 256 176 300 287 218 234 263 262 235 235 231 243 263 246 261 113 114 141 141 95 80
320 360 105 317 348 72 6 304 321 323 8 54 149 102 69 158 168 214 204 184 217 154 125 95 119 90 251 12 309 296 236 236 278 267 236 234 240 196 78 90 91 90 107 120 70